FW7828 Weather Reports


time (UTC)temp
F
wind
direction
speed
knots
gust
knots
rain 1hr
in
rain 24hr
in
rain mn
in
humidity
%
barometer
mb
20260901040612 77 281 0.0 0.0 0.00 0.00 0.00 93 1017.1
20260901040106 77 351 0.0 0.0 0.00 0.00 0.00 93 1017.5
20260901035604 77 354 0.0 0.0 0.00 0.00 0.00 93 1017.3
20260901035103 77 7 0.0 0.0 0.00 0.00 0.00 93 1017.0
20260901034603 77 13 0.0 0.0 0.00 0.00 0.00 93 1017.0
20260901034058 77 51 0.0 0.0 0.00 0.00 0.00 93 1017.0
20260901033556 77 346 0.0 0.0 0.00 0.00 0.00 93 1017.3
20260901033051 78 337 0.0 0.0 0.00 0.00 0.00 92 1017.2
20260901032550 78 343 0.0 0.0 0.00 0.00 0.00 92 1017.3
20260901032045 78 355 0.0 0.0 0.00 0.00 0.00 92 1017.2
20260901031540 78 348 0.0 0.9 0.00 0.00 0.00 92 1017.3
20260901031036 78 348 0.9 0.9 0.00 0.00 0.00 92 1017.3
20260901030536 78 336 0.0 0.0 0.00 0.00 0.00 91 1017.3
20260901030031 78 14 0.0 0.0 0.00 0.00 0.00 91 1017.0
20260901025530 78 352 0.0 0.0 0.00 0.00 0.00 91 1017.4
20260901025025 78 27 0.0 0.0 0.00 0.00 0.00 90 1017.2
20260901024520 79 355 0.0 0.0 0.00 0.00 0.00 89 1017.3
20260901024019 79 346 0.0 0.9 0.00 0.00 0.00 89 1017.2
20260901023513 79 154 0.9 1.7 0.00 0.00 0.00 89 1017.4
20260901023008 80 34 0.0 0.0 0.00 0.00 0.00 88 1017.3
20260901022503 80 258 0.0 0.0 0.00 0.00 0.00 88 1017.3
20260901021958 80 162 0.9 0.9 0.00 0.00 0.00 87 1017.3
20260901021454 80 65 0.0 0.0 0.00 0.00 0.00 87 1017.4
20260901020949 80 89 0.0 0.0 0.00 0.00 0.00 87 1017.5
20260901020444 80 204 0.0 0.9 0.00 0.00 0.00 86 1017.4
20260901015943 80 184 0.0 0.9 0.00 0.00 0.00 87 1017.3
20260901015440 81 23 0.0 0.0 0.00 0.00 0.00 87 1017.4
20260901014939 81 140 0.0 0.0 0.00 0.00 0.00 87 1017.3
20260901014435 81 153 0.0 0.0 0.00 0.00 0.00 87 1017.3
20260901013930 81 150 0.0 0.0 0.00 0.00 0.00 87 1017.3
20260901013426 81 153 0.0 0.9 0.00 0.00 0.00 86 1017.2
20260901012922 81 149 0.9 0.9 0.00 0.00 0.00 86 1017.0
20260901012416 82 148 0.9 1.7 0.00 0.00 0.00 85 1017.3
20260901011912 82 130 1.7 1.7 0.00 0.00 0.00 84 1017.1
20260901011408 82 149 0.9 1.7 0.00 0.00 0.00 84 1016.9
20260901010906 82 148 1.7 1.7 0.00 0.00 0.00 84 1016.9
20260901010401 82 127 1.7 1.7 0.00 0.00 0.00 85 1016.9
20260901005900 82 149 0.9 0.9 0.00 0.00 0.00 85 1016.7
20260901005355 82 126 0.9 0.9 0.00 0.00 0.00 86 1017.0
20260901004850 82 139 0.9 0.9 0.00 0.00 0.00 85 1016.7
20260901004349 82 132 0.9 0.9 0.00 0.00 0.00 85 1016.9
20260901003844 82 152 0.9 1.7 0.00 0.00 0.00 85 1016.8
20260901003339 83 141 0.9 0.9 0.00 0.00 0.00 85 1016.6
20260901002838 83 137 0.9 0.9 0.00 0.00 0.00 84 1016.4
20260901002337 83 141 0.9 0.9 0.00 0.00 0.00 85 1016.7
20260901001832 83 139 0.9 0.9 0.00 0.00 0.00 84 1016.6
20260901001327 83 151 0.9 0.9 0.00 0.00 0.00 84 1016.5
20260901000823 83 135 0.0 0.0 0.00 0.00 0.00 84 1016.6
20260901000318 84 148 0.9 0.9 0.00 0.00 0.00 83 1016.5
20260831235816 84 162 0.9 1.7 0.00 0.00 0.00 83 1016.7
20260831235312 84 143 0.9 0.9 0.00 0.00 0.00 83 1016.4
20260831234808 84 154 1.7 1.7 0.00 0.00 0.00 83 1016.5
20260831234307 83 132 1.7 1.7 0.00 0.00 0.00 83 1016.4
20260831233803 82 148 0.0 0.0 0.00 0.00 0.00 85 1016.2
20260831233258 81 61 0.0 0.0 0.00 0.00 0.00 88 1016.2
20260831232752 82 300 0.0 0.0 0.00 0.00 0.00 88 1016.4
20260831232249 82 252 0.0 0.0 0.00 0.00 0.00 88 1016.2
20260831231744 82 252 0.0 0.0 0.00 0.00 0.00 87 1016.4
20260831231241 82 251 0.0 0.0 0.00 0.00 0.00 87 1016.3
20260831230736 82 264 0.0 0.0 0.00 0.00 0.00 86 1016.4
20260831230231 82 16 0.0 0.0 0.00 0.00 0.00 85 1016.2
20260831225730 83 16 0.9 0.9 0.00 0.00 0.00 84 1016.2
20260831225226 83 358 0.9 0.9 0.00 0.00 0.00 83 1016.5
20260831224720 83 17 0.0 0.9 0.00 0.00 0.00 83 1016.6
20260831224216 83 0 0.9 0.9 0.00 0.00 0.00 82 1016.5
20260831223711 83 36 0.0 0.0 0.00 0.00 0.00 82 1016.7
20260831223208 83 6 0.0 0.0 0.00 0.00 0.00 82 1016.8
20260831222703 83 81 0.9 0.9 0.00 0.00 0.00 82 1016.5
20260831222159 84 26 0.9 0.9 0.00 0.00 0.00 81 1016.5
20260831221654 84 23 0.0 0.0 0.00 0.00 0.00 80 1016.5
20260831221149 84 12 0.9 0.9 0.00 0.00 0.00 80 1016.6
20260831220644 84 13 0.9 0.9 0.00 0.00 0.00 79 1016.5
20260831220139 84 56 0.0 0.0 0.00 0.00 0.00 79 1016.5
20260831215635 84 12 0.9 0.9 0.00 0.00 0.00 78 1016.6
20260831215130 84 23 0.0 0.0 0.00 0.00 0.00 78 1016.4
20260831214627 85 28 0.0 0.0 0.00 0.00 0.00 77 1016.4
20260831214123 85 58 0.0 0.0 0.00 0.00 0.00 77 1016.3
20260831213620 85 49 0.0 0.0 0.00 0.00 0.00 77 1016.6
20260831213115 86 25 0.0 0.0 0.00 0.00 0.00 74 1016.3
20260831212611 86 32 0.0 0.9 0.00 0.00 0.00 74 1016.2
20260831212107 86 325 0.9 0.9 0.00 0.00 0.00 75 1016.6
20260831211607 86 45 0.0 0.0 0.00 0.00 0.00 74 1016.6
20260831211106 86 15 0.9 0.9 0.00 0.00 0.00 73 1016.4
20260831210601 86 96 1.7 1.7 0.00 0.00 0.00 70 1016.6
20260831210057 86 40 0.0 0.0 0.00 0.00 0.00 73 1016.6
20260831205556 87 12 0.0 0.0 0.00 0.00 0.00 70 1016.7
20260831205053 87 5 0.9 0.9 0.00 0.00 0.00 68 1016.6
20260831204547 87 9 1.7 1.7 0.00 0.00 0.00 69 1016.8
20260831204045 87 20 0.0 0.9 0.00 0.00 0.00 68 1016.7
20260831203540 88 15 0.0 0.9 0.00 0.00 0.00 64 1016.8
20260831203039 89 7 0.9 0.9 0.00 0.00 0.00 64 1016.5
20260831202533 89 6 0.0 0.0 0.00 0.00 0.00 61 1016.7
20260831202033 90 5 0.0 0.0 0.00 0.00 0.00 61 1016.6
20260831201532 90 352 0.0 0.0 0.00 0.00 0.00 61 1016.6
20260831201027 91 359 0.0 0.0 0.00 0.00 0.00 61 1016.7
20260831200523 91 318 0.0 0.0 0.00 0.00 0.00 60 1016.6
20260831200018 91 1 0.0 0.9 0.00 0.00 0.00 57 1016.6
20260831195513 90 351 0.0 0.9 0.00 0.00 0.00 62 1016.6
20260831195013 91 2 0.0 0.0 0.00 0.00 0.00 56 1016.5
20260831194508 93 359 0.0 0.0 0.00 0.00 0.00 58 1016.8
20260831194003 93 202 0.0 0.0 0.00 0.00 0.00 52 1016.9
20260831193458 92 323 0.0 0.0 0.00 0.00 0.00 59 1016.7
20260831192953 90 228 0.0 0.0 0.00 0.00 0.00 53 1017.0
20260831192448 90 235 0.0 0.0 0.00 0.00 0.00 57 1016.9
20260831191942 91 81 0.9 0.9 0.00 0.00 0.00 56 1016.9
20260831191439 91 8 0.0 0.0 0.00 0.00 0.00 61 1017.1
20260831190935 89 347 0.0 0.0 0.00 0.00 0.00 67 1017.2
20260831190430 91 145 0.9 0.9 0.00 0.00 0.00 63 1017.2
20260831185929 90 72 0.0 0.0 0.00 0.00 0.00 63 1017.5
20260831185425 89 215 0.9 0.9 0.00 0.00 0.00 60 1017.3
20260831184924 89 116 0.9 1.7 0.00 0.00 0.00 70 1017.4
20260831184419 89 26 0.0 0.9 0.00 0.00 0.00 70 1017.4
20260831183915 88 184 0.9 1.7 0.00 0.00 0.00 67 1017.5
20260831183414 89 158 0.0 0.9 0.00 0.00 0.00 70 1017.7
20260831182914 89 115 0.9 0.9 0.00 0.00 0.00 68 1017.5
20260831182409 89 176 0.9 0.9 0.00 0.00 0.00 67 1017.4
20260831181904 88 99 0.9 0.9 0.00 0.00 0.00 72 1017.6
20260831181359 88 111 0.9 0.9 0.00 0.00 0.00 73 1017.5
20260831180854 88 111 0.0 0.9 0.00 0.00 0.00 74 1017.8
20260831180348 88 84 0.9 0.9 0.00 0.00 0.00 71 1017.9
20260831175848 88 127 0.9 0.9 0.00 0.00 0.00 74 1017.9
20260831175344 87 131 1.7 1.7 0.00 0.00 0.00 76 1017.9
20260831174840 87 118 2.6 2.6 0.00 0.00 0.00 75 1018.0
20260831174335 87 136 0.9 0.9 0.00 0.00 0.00 74 1017.9
20260831173834 88 122 0.9 0.9 0.00 0.00 0.00 74 1018.0
20260831173334 87 98 0.9 0.9 0.00 0.00 0.00 74 1017.9
20260831172829 87 135 0.9 0.9 0.00 0.00 0.00 75 1018.0
20260831172325 88 137 0.9 0.9 0.00 0.00 0.00 74 1018.0
20260831171825 88 117 0.9 0.9 0.00 0.00 0.00 74 1018.0
20260831171321 87 214 0.0 0.0 0.00 0.00 0.00 75 1018.1
20260831170818 87 189 1.7 1.7 0.00 0.00 0.00 74 1018.3
20260831170314 87 281 1.7 1.7 0.00 0.00 0.00 73 1018.2
20260831165810 86 178 0.0 0.9 0.00 0.00 0.00 75 1018.2
20260831165306 86 244 1.7 1.7 0.00 0.00 0.00 76 1018.2
20260831164802 87 279 0.9 0.9 0.00 0.00 0.00 76 1018.2
20260831164258 87 237 0.9 1.7 0.00 0.00 0.00 74 1018.5
20260831163753 87 124 0.0 0.0 0.00 0.00 0.00 77 1018.5
20260831163249 86 259 1.7 1.7 0.00 0.00 0.00 76 1018.2
20260831162747 86 65 0.9 1.7 0.00 0.00 0.00 77 1018.5
20260831162242 86 128 0.9 0.9 0.00 0.00 0.00 76 1018.6
20260831161736 85 152 0.9 1.7 0.00 0.00 0.00 77 1018.5
20260831161233 85 124 0.9 1.7 0.00 0.00 0.00 76 1018.6
20260831160732 85 93 1.7 1.7 0.00 0.00 0.00 77 1018.5
20260831160227 85 81 0.9 0.9 0.00 0.00 0.00 77 1018.5
20260831155727 86 92 0.9 1.7 0.00 0.00 0.00 76 1018.6
20260831155223 86 92 0.9 0.9 0.00 0.00 0.00 76 1018.5
20260831154719 85 116 0.9 0.9 0.00 0.00 0.00 78 1018.5
20260831154215 85 161 1.7 1.7 0.00 0.00 0.00 77 1018.3
20260831153713 85 99 1.7 1.7 0.00 0.00 0.00 78 1018.4
20260831153209 86 154 1.7 1.7 0.00 0.00 0.00 76 1018.4
20260831152705 85 164 1.7 1.7 0.00 0.00 0.00 77 1018.5
20260831152201 85 160 1.7 1.7 0.00 0.00 0.00 77 1018.4
20260831151700 85 129 0.0 0.9 0.00 0.00 0.00 79 1018.5
20260831151155 85 160 0.9 0.9 0.00 0.00 0.00 79 1018.5
20260831150650 85 176 0.0 0.9 0.00 0.00 0.00 80 1018.7
20260831150145 84 244 0.9 0.9 0.00 0.00 0.00 79 1018.6
20260831145644 84 138 1.7 1.7 0.00 0.00 0.00 81 1018.5
20260831145141 84 121 0.9 1.7 0.00 0.00 0.00 81 1018.7
20260831144636 84 125 0.9 1.7 0.00 0.00 0.00 81 1018.8
20260831144132 84 119 1.7 1.7 0.00 0.00 0.00 82 1018.6
20260831143631 84 74 0.9 0.9 0.00 0.00 0.00 77 1018.6
20260831143127 83 28 0.0 0.9 0.00 0.00 0.00 79 1018.4
20260831142623 83 44 0.9 0.9 0.00 0.00 0.00 78 1018.6
20260831142119 83 58 0.0 0.0 0.00 0.00 0.00 78 1018.4
20260831141617 83 21 0.0 0.0 0.00 0.00 0.00 79 1018.5
20260831141113 83 49 0.0 0.0 0.00 0.00 0.00 80 1018.4
20260831140612 82 48 0.0 0.0 0.00 0.00 0.00 81 1018.3
20260831140107 81 213 0.0 0.0 0.00 0.00 0.00 81 1018.3
20260831135604 81 88 0.0 0.0 0.00 0.00 0.00 82 1018.3
20260831135101 81 7 0.0 0.0 0.00 0.00 0.00 84 1018.1
20260831134556 81 30 0.9 0.9 0.00 0.00 0.00 82 1017.9
20260831134051 81 85 0.9 0.9 0.00 0.00 0.00 84 1018.2
20260831133550 80 1 0.0 0.0 0.00 0.00 0.00 85 1018.1
20260831133045 80 327 0.0 0.9 0.00 0.00 0.00 86 1018.1
20260831132542 79 169 0.9 0.9 0.00 0.00 0.00 86 1018.1
20260831132040 78 12 0.9 0.9 0.00 0.00 0.00 89 1018.1
20260831131541 77 134 0.9 0.9 0.00 0.00 0.00 91 1017.9
20260831131037 77 32 0.0 0.0 0.00 0.00 0.00 94 1018.0
20260831130532 76 136 0.0 0.0 0.00 0.00 0.00 95 1018.0
20260831130027 76 0 0.0 0.9 0.00 0.00 0.00 96 1017.9
20260831125520 75 353 0.0 0.9 0.00 0.00 0.00 97 1017.9
20260831125016 75 357 0.0 0.0 0.00 0.00 0.00 97 1017.7
20260831124513 75 350 0.0 0.0 0.00 0.00 0.00 97 1017.9
20260831124008 74 350 0.0 0.0 0.00 0.00 0.00 97 1018.0
20260831123507 74 345 0.0 0.0 0.00 0.00 0.00 97 1017.9
20260831123002 74 254 0.0 0.0 0.00 0.00 0.00 97 1018.0
20260831122457 74 350 0.0 0.0 0.00 0.00 0.00 97 1017.9
20260831121952 73 24 0.0 0.0 0.00 0.00 0.00 97 1018.2
20260831121447 73 13 0.0 0.0 0.00 0.00 0.00 97 1018.1
20260831120943 73 233 0.0 0.0 0.00 0.00 0.00 97 1018.1
20260831120442 73 25 0.0 0.0 0.00 0.00 0.00 97 1017.9
20260831115937 73 1 0.0 0.0 0.00 0.00 0.00 97 1017.9
20260831115433 72 0 0.0 0.0 0.00 0.00 0.00 97 1018.0
20260831114933 72 3 0.0 0.0 0.00 0.00 0.00 97 1018.0
20260831114432 72 358 0.0 0.0 0.00 0.00 0.00 97 1018.2
20260831113928 72 357 0.0 0.0 0.00 0.00 0.00 97 1018.3
20260831113427 72 343 0.0 0.0 0.00 0.00 0.00 97 1018.2
20260831112922 71 354 0.0 0.0 0.00 0.00 0.00 97 1018.1
20260831112422 71 341 0.0 0.0 0.00 0.00 0.00 97 1018.1
20260831111918 71 337 0.0 0.0 0.00 0.00 0.00 97 1018.1
20260831111414 71 348 0.0 0.0 0.00 0.00 0.00 97 1018.0
20260831110909 71 348 0.0 0.0 0.00 0.00 0.00 97 1018.0
20260831110404 71 350 0.0 0.0 0.00 0.00 0.00 97 1018.2
20260831105902 71 350 0.0 0.0 0.00 0.00 0.00 97 1017.9
20260831105358 71 329 0.0 0.0 0.00 0.00 0.00 97 1017.9
20260831104853 71 345 0.0 0.0 0.00 0.00 0.00 97 1017.8
20260831104349 71 324 0.0 0.0 0.00 0.00 0.00 97 1017.8
20260831103844 71 330 0.0 0.0 0.00 0.00 0.00 97 1018.0
20260831103340 71 339 0.0 0.0 0.00 0.00 0.00 97 1017.8
20260831102835 71 338 0.0 0.0 0.00 0.00 0.00 97 1017.7
20260831102329 71 5 0.0 0.0 0.00 0.00 0.00 97 1017.8
20260831101825 71 342 0.0 0.0 0.00 0.00 0.00 97 1017.7
20260831101320 71 349 0.0 0.0 0.00 0.00 0.00 97 1017.8
20260831100816 71 349 0.0 0.0 0.00 0.00 0.00 97 1017.7
20260831100312 71 349 0.0 0.0 0.00 0.00 0.00 97 1017.6
20260831095811 71 349 0.0 0.0 0.00 0.00 0.00 97 1017.7
20260831095306 71 349 0.0 0.0 0.00 0.00 0.00 97 1017.7
20260831094801 71 349 0.0 0.0 0.00 0.00 0.00 97 1017.6
20260831094256 71 346 0.0 0.0 0.00 0.00 0.00 97 1017.5
20260831093752 71 351 0.0 0.0 0.00 0.00 0.00 97 1017.3
20260831093252 71 356 0.0 0.0 0.00 0.00 0.00 97 1017.7
20260831092749 71 349 0.0 0.9 0.00 0.00 0.00 97 1017.6
20260831092244 71 357 0.0 0.9 0.00 0.00 0.00 97 1018.0
20260831091743 72 320 0.0 0.0 0.00 0.00 0.00 97 1017.9
20260831091240 72 334 0.0 0.0 0.00 0.00 0.00 97 1017.7
20260831090735 72 322 0.0 0.0 0.00 0.00 0.00 97 1017.8
20260831090231 72 346 0.0 0.0 0.00 0.00 0.00 97 1017.6
20260831085727 72 352 0.0 0.0 0.00 0.00 0.00 97 1017.7
20260831085221 72 339 0.9 0.9 0.00 0.00 0.00 97 1017.5
20260831084717 72 333 0.0 0.0 0.00 0.00 0.00 97 1017.5
20260831084213 72 339 0.0 0.0 0.00 0.00 0.00 97 1017.4
20260831083709 72 327 0.0 0.9 0.00 0.00 0.00 97 1017.6
20260831083204 72 327 0.0 0.0 0.00 0.00 0.00 97 1017.6
20260831082702 72 336 0.0 0.0 0.00 0.00 0.00 97 1017.5
20260831082158 72 345 0.0 0.0 0.00 0.00 0.00 97 1017.5
20260831081653 72 329 0.0 0.0 0.00 0.00 0.00 97 1017.5
20260831081149 72 322 0.0 0.0 0.00 0.00 0.00 97 1017.7
20260831080645 73 333 0.0 0.9 0.00 0.00 0.00 97 1017.6
20260831080139 73 2 0.0 0.0 0.00 0.00 0.00 97 1017.7
20260831075635 73 328 0.0 0.0 0.00 0.00 0.00 97 1017.8
20260831075130 73 352 0.0 0.0 0.00 0.00 0.00 97 1017.8
20260831074629 73 334 0.9 0.9 0.00 0.00 0.00 97 1017.7
20260831074124 73 338 0.0 0.0 0.00 0.00 0.00 97 1017.6
20260831073619 73 342 0.0 0.0 0.00 0.00 0.00 97 1017.8
20260831073118 73 349 0.0 0.0 0.00 0.00 0.00 97 1017.9
20260831072614 73 355 0.9 0.9 0.00 0.00 0.00 97 1017.7
20260831072111 73 341 0.9 0.9 0.00 0.00 0.00 96 1017.9
20260831071609 73 349 0.0 0.0 0.00 0.00 0.00 96 1017.6
20260831071104 74 343 0.0 0.0 0.00 0.00 0.00 96 1017.6
20260831070603 74 342 0.0 0.0 0.00 0.00 0.00 96 1017.8
20260831070058 74 342 0.0 0.0 0.00 0.00 0.00 96 1017.8
20260831065556 74 342 0.0 0.0 0.00 0.00 0.00 96 1017.8
20260831065050 74 342 0.0 0.0 0.00 0.00 0.00 96 1017.8
20260831064546 74 340 0.0 0.9 0.00 0.00 0.00 96 1017.7
20260831064041 74 342 0.0 0.0 0.00 0.00 0.00 96 1018.1
20260831063537 74 343 0.0 0.0 0.00 0.00 0.00 96 1017.9
20260831063031 74 349 0.0 0.0 0.00 0.00 0.00 96 1017.8
20260831062526 74 349 0.0 0.0 0.00 0.00 0.00 96 1017.8
20260831062026 74 349 0.0 0.0 0.00 0.00 0.00 96 1018.1
20260831061524 74 349 0.0 0.0 0.00 0.00 0.00 96 1018.0
20260831061020 74 351 0.0 0.0 0.00 0.00 0.00 96 1018.1
20260831060520 74 355 0.0 0.0 0.00 0.00 0.00 96 1018.2
20260831060016 74 355 0.0 0.0 0.00 0.00 0.00 96 1018.1
20260831055510 74 356 0.0 0.0 0.00 0.00 0.00 96 1018.1
20260831055006 74 2 0.0 0.0 0.00 0.00 0.00 96 1018.3
20260831054506 74 354 0.0 0.0 0.00 0.00 0.00 96 1018.2
20260831054005 74 348 0.0 0.0 0.00 0.00 0.00 96 1018.5
20260831053503 74 350 0.0 0.0 0.00 0.00 0.00 96 1018.5
20260831052958 74 350 0.0 0.0 0.00 0.00 0.00 96 1018.4
20260831052457 74 342 0.0 0.0 0.00 0.00 0.00 96 1018.8
20260831051956 74 350 0.0 0.0 0.00 0.00 0.00 96 1018.9
20260831051455 74 350 0.0 0.0 0.00 0.00 0.00 96 1018.6
20260831050954 74 350 0.0 0.0 0.00 0.00 0.00 96 1018.5
20260831050449 74 359 0.0 0.0 0.00 0.00 0.00 96 1018.6
20260831045948 74 339 0.0 0.0 0.00 0.00 0.00 96 1018.6
20260831045447 74 348 0.0 0.0 0.00 0.00 0.00 96 1018.6
20260831044942 75 353 0.0 0.0 0.00 0.00 0.00 96 1018.5
20260831044437 74 341 0.0 0.0 0.00 0.00 0.00 96 1018.6
20260831043933 74 346 0.0 0.0 0.00 0.00 0.00 96 1018.8
20260831043433 74 350 0.0 0.0 0.00 0.00 0.00 96 1018.5
20260831042928 74 355 0.0 0.0 0.00 0.00 0.00 96 1018.7
20260831042427 74 355 0.0 0.0 0.00 0.00 0.00 96 1018.6
20260831041922 74 355 0.0 0.0 0.00 0.00 0.00 96 1018.7
20260831041422 74 357 0.0 0.0 0.00 0.00 0.00 95 1018.6
20260831040917 74 352 0.0 0.0 0.00 0.00 0.00 95 1018.6